Rexburg, ID

5:42 PM MDT on March 27, 2017 (GMT -0600)
Rexburg-Madison County

Weather History for KRXE - September, 2011

Change the Weather History Date:

Monday, September 19, 2011

  Actual Average Record
Temperature  
Mean Temperature 58 °F 54 °F  
Max Temperature 75 °F 70 °F 85 °F (2009)
Min Temperature 41 °F 39 °F 28 °F (2003)
Degree Days  
Heating Degree Days 7 11  
Month to date heating degree days 77 142  
Since 1 July heating degree days 99 215  
Cooling Degree Days 0 0  
Month to date cooling degree days 0 5  
Year to date cooling degree days 222 207  
Growing Degree Days 8 (Base 50)    
Moisture  
Dew Point 37 °F    
Average Humidity 56    
Maximum Humidity 89    
Minimum Humidity 23    
Precipitation  
Precipitation 0.00 in 0.04 in 0.12 in (2004)
Month to date precipitation 0.33 0.56  
Year to date precipitation 10.41 9.48  
Sea Level Pressure  
Sea Level Pressure 30.06 in    
Wind  
Wind Speed 9 mph (SW)    
Max Wind Speed 28 mph    
Max Gust Speed 39 mph    
Visibility 10 miles    
Events      
T = Trace of Precipitation, MM = Missing Value Source: NWS Daily Summary

Daily Weather History Graph

Daily Weather History Graph

Search for Another Location

Airport or City:

Trip Planner

Search our weather history database for the weather conditions in past years. The results will help you decide how hot, cold, wet, or windy it might be!

Date:

Astronomy

Sep. 19, 2011 Rise Set
Actual Time 7:10 AM MDT 7:30 PM MDT
Civil Twilight 6:42 AM MDT 7:59 PM MDT
Nautical Twilight 6:08 AM MDT 8:33 PM MDT
Astronomical Twilight 5:33 AM MDT 9:07 PM MDT
Moon 11:27 PM MDT (9/19) 2:17 PM MDT (9/19)
Length of Visible Light 13h 17m
Length of Day
12h 19m
Waning Gibbous, 58% of the Moon is Illuminated
Sep 19
Waning Gibbous
Sep 20
Last Quarter
Sep 27
New
Oct 3
First Quarter
Oct 11
Full

Hourly Weather History & Observations

Time (MDT) Temp. Windchill Dew Point Humidity Pressure Visibility Wind Dir Wind Speed Gust Speed Precip Events Conditions
1:53 AM 45.0 °F - 39.9 °F 82% 30.17 in 10.0 mi Calm Calm - N/A   Clear
2:53 AM 43.0 °F 41.3 °F 39.0 °F 86% 30.16 in 10.0 mi North 3.5 mph - N/A   Clear
3:53 AM 42.1 °F - 37.9 °F 85% 30.15 in 10.0 mi Calm Calm - N/A   Clear
4:53 AM 42.1 °F 39.2 °F 37.9 °F 85% 30.15 in 10.0 mi ENE 4.6 mph - N/A   Clear
5:53 AM 41.0 °F - 37.9 °F 89% 30.15 in 10.0 mi Calm Calm - N/A   Clear
7:53 AM 44.1 °F - 37.9 °F 79% 30.17 in 10.0 mi Calm Calm - N/A   Clear
10:53 AM 63.0 °F - 41.0 °F 45% 30.10 in 10.0 mi SW 10.4 mph - N/A   Partly Cloudy
11:53 AM 66.0 °F - 37.9 °F 36% 30.07 in 10.0 mi SW 15.0 mph - N/A   Clear
12:53 PM 70.0 °F - 37.0 °F 30% 30.04 in 10.0 mi SW 17.3 mph 24.2 mph N/A   Clear
1:53 PM 72.0 °F - 36.0 °F 27% 30.03 in 10.0 mi SW 20.7 mph 28.8 mph N/A   Clear
2:53 PM 75.0 °F - 36.0 °F 24% 30.00 in 10.0 mi SW 20.7 mph 29.9 mph N/A   Clear
3:53 PM 73.9 °F - 37.9 °F 27% 29.97 in 10.0 mi SSW 17.3 mph 24.2 mph N/A   Clear
4:53 PM 73.9 °F - 33.1 °F 22% 29.96 in 10.0 mi SW 15.0 mph 24.2 mph N/A   Unknown
5:53 PM 73.0 °F - 35.1 °F 25% 29.95 in 10.0 mi SW 16.1 mph 25.3 mph N/A   Partly Cloudy
6:53 PM 71.1 °F - 37.0 °F 29% 29.95 in 10.0 mi SW 12.7 mph 19.6 mph N/A   Clear
7:53 PM 66.0 °F - 37.0 °F 34% 29.97 in 10.0 mi SSW 10.4 mph - N/A   Partly Cloudy
9:53 PM 61.0 °F - 35.1 °F 38% 30.03 in 10.0 mi Variable 6.9 mph - N/A   Clear
10:53 PM 61.0 °F - 36.0 °F 39% 30.04 in 10.0 mi North 11.5 mph - N/A   Clear
11:53 PM 57.0 °F - 37.0 °F 47% 30.06 in 10.0 mi ENE 5.8 mph - N/A   Clear